Weather History for Beckley, WV

Change the Weather History Date:

Friday, February 15, 2013

  Actual Average Record
Temperature  
Mean Temperature 38 °F 34 °F  
Max Temperature 48 °F 43 °F 71 °F (1990)
Min Temperature 27 °F 26 °F -5 °F (1943)
Degree Days  
Heating Degree Days 27 31  
Month to date heating degree days 463 479  
Since 1 July heating degree days 3379 3623  
Cooling Degree Days 0 0  
Month to date cooling degree days 0 0  
Year to date cooling degree days 0 0  
Moisture  
Dew Point 29 °F    
Average Humidity 75    
Maximum Humidity 92    
Minimum Humidity 58    
Precipitation  
Precipitation 0.11 in 0.10 in 1.24 in (2003)
Month to date precipitation 0.77 1.45  
Year to date precipitation 5.54 4.26  
Snow  
Snow 0.00 in - - ()
Month to date snowfall 6.3  
Since 1 September snowfall 48.7  
Snow Depth 0.00 in    
Sea Level Pressure  
Sea Level Pressure 30.01 in    
Wind  
Wind Speed 6 mph (WNW)    
Max Wind Speed 16 mph    
Max Gust Speed 23 mph    
Visibility 6 miles    
Events Fog , Snow    
T = Trace of Precipitation, MM = Missing Value Source: NWS Daily Summary

Daily Weather History Graph

Daily Weather History Graph

Search for Another Location

Airport:

Trip Planner

Search our weather history database for the weather conditions in past years. The results will help you decide how hot, cold, wet, or windy it might be!

Date:

Astronomy

Feb. 15, 2013 Rise Set
Actual Time 7:13 AM EST 6:03 PM EST
Civil Twilight 6:47 AM EST 6:30 PM EST
Nautical Twilight 6:16 AM EST 7:01 PM EST
Astronomical Twilight 5:45 AM EST 7:31 PM EST
Moon 9:56 AM EST (2/15) 11:55 PM EST (2/15)
Length of Visible Light 11h 43m
Length of Day
10h 49m
Waxing Crescent, 30% of the Moon is Illuminated
Feb 15
Waxing Crescent
Feb 17
First Quarter
Feb 25
Full
Mar 4
Last Quarter
Mar 11
New

Hourly Weather History & Observations

Time (EST) Temp. Windchill Dew Point Humidity Pressure Visibility Wind Dir Wind Speed Gust Speed Precip Events Conditions
12:51 AM 36.0 °F 30.3 °F 28.0 °F 73% 30.01 in 10.0 mi SW 6.9 mph - N/A   Partly Cloudy
1:51 AM 36.0 °F 30.3 °F 28.0 °F 73% 30.02 in 10.0 mi SSW 6.9 mph - N/A   Mostly Cloudy
2:51 AM 35.1 °F 31.0 °F 28.0 °F 76% 30.02 in 10.0 mi SSW 4.6 mph - N/A   Mostly Cloudy
3:51 AM 33.1 °F 30.0 °F 27.0 °F 78% 30.02 in 10.0 mi South 3.5 mph - N/A   Clear
4:51 AM 32.0 °F 26.4 °F 27.0 °F 82% 30.02 in 10.0 mi South 5.8 mph - N/A   Clear
5:51 AM 33.1 °F 28.7 °F 27.0 °F 78% 30.03 in 10.0 mi SSW 4.6 mph - N/A   Clear
6:51 AM 33.1 °F 30.0 °F 27.0 °F 78% 30.04 in 10.0 mi South 3.5 mph - N/A   Clear
7:51 AM 32.0 °F 28.7 °F 27.0 °F 82% 30.06 in 10.0 mi South 3.5 mph - N/A   Clear
8:51 AM 39.0 °F 36.8 °F 30.9 °F 73% 30.05 in 10.0 mi SSW 3.5 mph - N/A   Clear
9:51 AM 42.1 °F 40.2 °F 30.9 °F 65% 30.04 in 10.0 mi SW 3.5 mph - N/A   Mostly Cloudy
10:51 AM 45.0 °F 38.5 °F 30.9 °F 58% 30.01 in 10.0 mi SW 13.8 mph - N/A   Partly Cloudy
11:51 AM 44.1 °F 38.1 °F 30.9 °F 60% 30.01 in 10.0 mi WNW 11.5 mph - N/A   Mostly Cloudy
12:51 PM 44.1 °F 37.7 °F 33.1 °F 65% 30.00 in 10.0 mi North 12.7 mph - N/A   Overcast
1:51 PM 39.9 °F 32.9 °F 30.9 °F 70% 29.99 in 10.0 mi North 11.5 mph - N/A   Mostly Cloudy
2:30 PM 35.6 °F 26.6 °F 30.2 °F 81% 29.95 in 3.0 mi North 13.8 mph - 0.00 in Snow Light Snow
2:35 PM 35.6 °F 26.2 °F 30.2 °F 81% 29.95 in 1.8 mi North 15.0 mph - 0.00 in Snow Light Snow
2:51 PM 34.0 °F 25.5 °F 30.0 °F 85% 30.02 in 1.0 mi North 11.5 mph - 0.00 in Snow Light Snow
3:04 PM 33.8 °F 27.0 °F 30.2 °F 87% 29.96 in 1.0 mi North 8.1 mph - 0.00 in Snow Light Snow
3:12 PM 32.0 °F 24.2 °F 30.2 °F 93% 29.97 in 0.5 mi NNW 9.2 mph - 0.01 in Fog , Snow Snow
3:29 PM 32.0 °F 26.4 °F 30.2 °F 93% 29.96 in 0.8 mi North 5.8 mph - 0.02 in Snow Light Snow
3:51 PM 32.0 °F 28.7 °F 30.0 °F 92% 30.05 in 0.8 mi NNW 3.5 mph - 0.04 in Snow Light Snow
4:09 PM 32.0 °F 28.7 °F 30.2 °F 93% 29.97 in 0.2 mi North 3.5 mph - 0.01 in Fog , Snow Heavy Snow
4:31 PM 32.0 °F - 30.2 °F 93% 29.97 in 0.8 mi Calm Calm - 0.03 in Snow Light Snow
4:38 PM 32.0 °F - 30.2 °F 93% 29.97 in 1.2 mi Calm Calm - 0.03 in Snow Light Snow
4:51 PM 32.0 °F 28.7 °F 30.0 °F 92% 30.06 in 1.0 mi NNW 3.5 mph - 0.04 in Snow Light Snow
5:01 PM 32.0 °F 27.5 °F 30.2 °F 93% 29.97 in 0.5 mi NW 4.6 mph - 0.00 in Fog , Snow Snow
5:21 PM 32.0 °F 25.6 °F 30.2 °F 93% 29.98 in 1.0 mi WNW 6.9 mph - 0.01 in Snow Light Snow
5:29 PM 32.0 °F 26.4 °F 30.2 °F 93% 29.98 in 1.0 mi WNW 5.8 mph - 0.01 in Snow Light Snow
5:48 PM 32.0 °F 26.4 °F 30.2 °F 93% 29.99 in 0.8 mi WNW 5.8 mph - 0.02 in Snow Light Snow
5:51 PM 32.0 °F 25.6 °F 30.0 °F 92% 30.06 in 0.8 mi NW 6.9 mph - 0.02 in Snow Light Snow
6:23 PM 32.0 °F 26.4 °F 30.2 °F 93% 29.99 in 2.0 mi NW 5.8 mph - 0.01 in Snow Light Snow
6:35 PM 32.0 °F 28.7 °F 30.2 °F 93% 29.99 in 4.0 mi NW 3.5 mph - 0.01 in Snow Light Snow
6:51 PM 32.0 °F 25.6 °F 28.9 °F 88% 30.07 in 3.0 mi NW 6.9 mph - 0.01 in Snow Light Snow
7:17 PM 30.2 °F 24.3 °F 28.4 °F 93% 30.00 in 5.0 mi NNW 5.8 mph - 0.00 in Snow Light Snow
7:26 PM 30.2 °F 24.3 °F 28.4 °F 93% 30.00 in 6.0 mi NW 5.8 mph - 0.00 in Snow Light Snow
7:51 PM 30.9 °F 24.3 °F 28.0 °F 89% 30.10 in 9.0 mi NW 6.9 mph - 0.00 in   Overcast
8:02 PM 30.2 °F 23.4 °F 28.4 °F 93% 30.01 in 10.0 mi WNW 6.9 mph - N/A   Overcast
8:21 PM 30.2 °F - 28.4 °F 93% 30.01 in 10.0 mi Calm Calm - N/A   Overcast
8:25 PM 30.2 °F 26.7 °F 28.4 °F 93% 30.01 in 10.0 mi NW 3.5 mph - N/A   Overcast
8:43 PM 30.2 °F - 28.4 °F 93% 30.01 in 10.0 mi Calm Calm - N/A   Overcast
8:51 PM 30.9 °F 26.2 °F 28.9 °F 92% 30.08 in 10.0 mi West 4.6 mph - N/A   Overcast
9:44 PM 30.2 °F 24.3 °F 26.6 °F 86% 30.02 in 10.0 mi West 5.8 mph - 0.00 in   Overcast
9:51 PM 30.0 °F 25.2 °F 27.0 °F 88% 30.08 in 10.0 mi West 4.6 mph - 0.00 in   Overcast
10:16 PM 30.2 °F 24.3 °F 26.6 °F 86% 30.02 in 10.0 mi WNW 5.8 mph - N/A   Overcast
10:40 PM 30.2 °F 24.3 °F 26.6 °F 86% 30.01 in 10.0 mi West 5.8 mph - N/A   Overcast
10:51 PM 30.0 °F 26.5 °F 26.1 °F 85% 30.06 in 10.0 mi West 3.5 mph - N/A   Overcast
11:13 PM 28.4 °F 23.3 °F 26.6 °F 93% 30.00 in 10.0 mi WSW 4.6 mph - N/A   Overcast
11:51 PM 28.0 °F - 26.1 °F 92% 30.05 in 8.0 mi Calm Calm - N/A   Partly Cloudy